User: anonymous   Login
Location: Unspecified
(0.0000°N, 0.0000°E)
Time: 05:16:50
(UTC+01:00)
Language:

Cosmos 773 Rocket - Orbit

View from above orbital plane
View from above orbital plane
View from above satellite
View from above satellite

Ground track
Ground track

The orbit data is extracted from the following two-line orbital elements,

1 08344U 75094B   18054.42729084 -.00000015  00000-0  37251-5 0  9998
2 08344  74.0577  22.6637 0022828 223.2883 136.6479 14.39112841221822
Epoch (UTC): 23 February 2018 10:15:17
Eccentricity: 0.0022828
inclination: 74.0577°
perigee height: 745 km
apogee height: 778 km
right ascension of ascending node: 22.6637°
argument of perigee: 223.2883°
revolutions per day: 14.39112841
mean anomaly at epoch: 136.6479°
orbit number at epoch: 22182

The dashed part of the orbit path shows where the satellite is in the earth's shadow,  

DLR